Location: Unspecified
(0.0000°N, 0.0000°E)
Time: 19:21:00
(UTC+00:00)

Vanguard 3 - Pass Details

Date: 29 September 2023
Orbit: 507 x 3241 km, 33.3° (Epoch: 29 November)

Event Time Altitude Azimuth Distance (km) Brightness Sun altitude
Rises 05:02:04 0° 255° (WSW) 3,176 - -12.1°
Exits shadow 05:04:35 - 236° (WSW) 2,684 9.3 -11.5°
Reaches altitude 10° 05:05:23 10° 229° (SW) 2,596 9.3 -11.3°
Maximum altitude 05:08:44 15° 196° (SSW) 2,643 9.6 -10.4°
Drops below altitude 10° 05:13:00 10° 165° (SSE) 3,477 10.6 -9.4°
Sets 05:18:54 0° 145° (SE) 5,138 11.8 -7.9°
